Location: San Martino di Castrozza
(46.2667°N, 11.8000°E)
Time: 16:05:22
(UTC+00:00)

SJ 16-02 - Pass Details

Date: 23 April 2021
Orbit: 605 x 617 km, 75.0° (Epoch: 13 May)

Event Time Altitude Azimuth Distance (km) Brightness Sun altitude
Exits shadow 00:54:18 44° 331° (NNW) 861 2.2 -26.8°
Drops below altitude 10° 00:57:48 10° 11° (N) 1,989 4.9 -26.5°
Sets 01:00:07 0° 17° (NNE) 2,900 6.0 -26.3°
